SCP
1 1 1 1 1 0 0 0 0 0 0 0 0 0 0 0 0 0 0 0 0 0 0 1 1 2 2 1 1 1 1 1 1 1 1 1 1 1 1 1 1 1 0 0 0 1 1 1 1
1 1 1 1 1 0 0 0 0 0 0 0 0 0 0 0 0 0 0 0 0 0 0 1 1 1 2 1 1 1 1 1 1 1 1 1 1 1 1 1 1 1 1 1 1 1 1 1 1
2 2 2 1 0 0 0 0 0 0 0 0 0 0 0 0 0 0 0 0 0 0 0 1 1 1 1 1 1 0 0 1 1 1 1 1 1 1 1 1 1 1 1 1 1 1 1 1 1
2 2 2 1 0 0 0 0 0 0 0 0 0 0 0 0 0 0 0 0 0 0 0 1 1 1 1 1 1 0 1 1 1 1 1 1 0 0 0 1 1 1 1 1 1 1 1 1 1
2 2 1 0 0 0 0 0 0 0 0 0 0 0 0 0 0 0 0 0 0 0 0 1 1 1 1 1 1 1 1 1 1 1 1 1 0 0 0 0 1 1 1 2 1 1 1 1 1
2 1 1 0 0 0 0 0 0 0 0 0 0 0 0 0 0 0 0 0 0 0 1 1 1 1 1 1 1 1 1 1 1 1 1 1 0 0 0 0 1 1 2 2 2 1 1 1 1
1 1 0 0 0 0 0 0 0 0 0 0 0 0 0 1 1 0 0 0 0 0 1 1 1 1 1 1 1 1 1 1 1 1 1 1 1 1 1 0 0 1 2 2 1 1 1 1 1
1 1 0 0 0 0 0 0 0 0 0 0 0 0 0 1 1 1 0 0 0 1 1 1 1 1 1 1 1 1 1 1 1 1 1 1 1 1 1 0 0 1 1 1 1 1 1 1 1
1 1 0 0 0 0 1 1 1 1 1 0 0 0 1 1 1 1 1 1 1 1 1 1 1 1 1 1 1 1 1 1 1 1 1 1 1 0 0 0 0 0 0 0 1 1 1 1 1
0 0 0 0 0 0 1 1 1 1 1 1 1 1 1 1 1 1 1 1 1 1 1 1 1 1 1 1 1 1 1 1 1 1 1 1 0 0 0 0 0 0 0 0 1 1 1 1 1
0 0 0 0 0 0 0 1 1 1 1 1 1 1 1 1 1 0 0 1 1 1 1 1 1 1 1 1 1 1 1 1 1 1 1 1 0 0 0 0 0 0 1 1 1 1 1 1 1
0 0 0 0 0 0 0 0 0 0 0 1 1 1 1 1 1 0 0 0 1 1 1 1 1 1 1 1 1 1 1 1 1 1 1 1 1 1 1 0 0 1 1 1 1 1 1 1 1
0 0 0 0 0 0 0 0 0 0 0 1 1 1 1 1 1 1 0 1 1 0 1 1 1 1 1 1 1 1 1 1 1 1 1 1 1 1 1 1 1 1 1 2 2 1 1 1 1
0 0 0 0 0 0 0 0 0 0 1 1 1 1 1 1 1 1 1 1 1 1 1 1 1 1 1 1 1 1 1 1 0 1 1 1 1 1 1 1 1 1 1 2 2 1 1 1 1
0 0 0 0 0 0 0 0 0 1 1 1 1 1 1 1 1 1 1 1 1 1 1 1 1 1 1 1 1 1 1 0 0 0 0 1 1 1 1 1 1 1 1 1 1 1 1 1 1
0 0 0 0 0 0 0 0 1 1 1 1 1 1 1 1 1 1 1 1 1 1 1 1 1 1 1 1 1 1 0 0 0 0 1 1 1 1 1 1 1 1 1 1 1 1 1 1 1
0 0 0 0 0 0 0 0 1 1 1 1 1 2 2 2 1 1 1 1 1 1 2 1 1 1 1 1 1 1 1 0 0 0 1 1 1 1 1 1 1 1 1 1 1 0 0 1 1
0 0 0 0 0 0 0 0 1 1 1 1 1 2 2 2 1 1 1 1 1 2 2 2 2 2 1 1 1 1 1 0 0 0 1 1 1 1 1 1 1 1 1 1 1 1 1 1 1
0 0 0 0 0 0 0 0 0 1 1 1 1 2 2 1 1 1 1 1 1 2 2 3 3 3 2 2 2 1 1 1 0 0 1 1 1 1 1 1 1 1 1 1 1 1 1 1 1
0 0 0 0 0 0 0 0 0 1 1 1 1 2 2 1 1 1 2 1 2 2 2 2 3 3 3 2 2 2 1 1 1 1 1 1 1 1 1 1 1 1 1 1 1 1 1 1 1
0 0 0 0 0 0 0 0 0 1 1 1 2 2 2 1 1 2 2 2 2 2 2 2 3 3 3 3 3 3 2 1 1 1 1 1 1 2 2 2 1 1 1 1 1 2 2 2 2
0 0 0 0 1 0 0 0 0 1 1 1 2 2 2 2 2 2 3 3 2 2 2 2 3 3 4 4 5 4 3 2 2 2 2 2 2 2 2 2 2 2 2 2 2 2 2 2 2
1 1 1 1 1 0 0 0 0 1 1 1 2 2 2 2 2 2 3 3 3 2 2 2 3 4 4 5 6 6 4 2 2 2 3 2 2 2 2 3 3 2 2 2 2 2 2 2 2
1 1 0 0 1 1 0 0 1 1 1 1 2 2 2 2 2 3 4 4 4 3 3 3 4 4 4 5 6 6 4 3 3 3 3 3 3 3 3 3 3 3 2 2 2 2 2 3 3
1 1 0 0 1 0 0 0 1 2 2 2 2 2 2 3 4 5 5 5 5 4 4 4 5 6 5 5 6 7 5 4 3 3 3 3 3 3 3 3 3 2 2 2 2 2 3 3 3
1 0 0 0 0 0 0 1 1 2 2 2 2 2 3 4 5 6 5 5 5 5 4 4 5 7 6 5 6 6 5 4 4 4 4 4 3 3 3 3 3 3 2 2 2 3 3 4 4
0 0 0 0 0 0 0 1 1 2 2 2 2 3 4 4 4 4 4 5 6 5 3 3 4 6 6 5 5 5 5 4 4 4 5 5 4 4 4 4 3 3 3 3 3 3 4 4 5
0 0 0 0 0 0 0 0 1 2 2 2 2 4 4 4 3 3 4 5 5 4 4 4 5 5 6 5 5 4 4 4 4 5 5 5 5 4 4 4 4 4 4 3 3 4 4 4 5
0 0 0 0 0 0 0 0 1 2 2 2 3 4 4 3 3 3 4 5 5 5 5 6 6 6 6 5 4 4 3 3 3 4 4 4 4 4 4 4 5 5 5 4 4 3 3 3 4
0 0 0 0 0 0 0 1 1 2 2 3 3 4 3 3 3 3 4 5 6 7 7 7 7 6 5 5 4 4 3 2 2 3 3 3 3 3 4 4 6 6 5 5 3 3 3 3 3
Wind_Speed
12 10 6 6 6 4 11 9 7 8 7 7 6 5 7 8 7 8 7 7 7 8 10 10 10 10 11 11 12 12 12 12 12 11 11 10 10 11 11 11 12 12 12 12 12 13 13 13 13
9 7 6 6 1 8 11 8 9 9 8 7 6 5 7 8 8 7 7 7 8 9 9 10 11 10 11 11 12 12 12 12 11 10 10 10 10 10 10 11 11 11 12 12 12 13 13 13 13
7 7 6 1 8 10 10 8 9 8 7 5 5 6 6 7 7 6 7 8 8 9 9 11 10 10 11 11 11 12 12 11 10 10 10 10 10 10 10 10 10 10 11 12 13 13 13 13 13
5 7 5 3 12 11 9 8 7 8 7 5 5 7 7 6 4 8 10 9 9 9 9 12 9 10 11 11 11 11 11 10 10 9 9 9 10 10 10 10 10 9 11 12 12 13 12 12 12
6 5 2 9 12 10 9 8 5 6 6 6 5 9 9 7 8 11 9 9 9 9 9 12 10 10 11 11 11 11 10 9 9 9 8 9 9 9 10 10 10 10 11 12 12 12 11 11 11
5 3 4 10 12 8 8 6 6 7 8 7 6 9 9 8 10 10 9 8 8 8 9 12 11 10 10 10 10 10 10 9 9 8 8 8 9 10 10 10 10 10 10 11 11 11 11 10 10
4 2 7 9 9 8 6 5 4 6 7 6 5 8 9 9 9 9 9 8 8 7 8 9 10 11 11 10 10 9 8 8 8 8 7 8 8 9 9 9 9 10 9 10 10 10 10 9 9
4 1 7 8 8 9 7 5 5 5 8 7 4 6 9 11 10 10 9 8 7 6 7 7 7 8 9 10 11 9 7 7 7 7 7 8 9 9 9 9 9 9 9 9 9 9 9 8 8
6 1 7 8 6 8 8 7 6 5 8 7 5 6 12 14 12 11 10 8 7 6 6 6 7 7 7 8 10 9 8 7 7 7 8 6 6 8 8 9 10 9 9 8 8 8 8 7 8
4 3 9 6 5 6 7 6 7 7 8 8 9 11 15 14 12 11 10 9 9 7 7 6 6 6 6 5 6 5 5 6 4 4 5 4 4 5 6 10 9 8 8 8 7 7 8 7 6
1 4 5 4 4 5 7 7 6 6 6 7 11 15 15 14 11 10 9 8 8 7 6 7 6 5 4 4 4 3 3 3 4 4 4 4 4 5 5 5 7 7 8 6 8 7 5 3 2
1 2 2 3 4 4 6 6 6 3 5 7 12 15 15 14 11 9 9 8 7 7 6 6 7 5 4 3 3 3 3 3 3 4 4 4 3 3 3 3 4 4 3 3 3 3 3 3 3
2 2 3 4 5 5 6 6 5 5 7 10 13 14 14 13 11 9 8 7 7 7 7 6 6 5 4 3 2 3 3 3 4 4 4 3 3 4 4 3 2 3 3 4 3 3 3 3 3
1 3 4 5 6 6 6 6 5 6 9 12 13 14 14 12 11 10 9 8 8 7 7 6 6 6 5 4 3 3 3 3 3 3 4 3 3 3 3 3 3 2 2 2 2 2 3 2 1
4 5 5 5 6 6 5 6 5 8 10 12 12 12 12 12 12 11 10 9 9 8 7 7 7 7 6 5 5 4 3 4 3 3 4 4 3 3 3 2 3 3 3 3 3 2 2 3 3
7 7 6 6 6 5 7 3 7 10 11 11 11 11 11 11 12 11 10 9 9 8 8 7 6 7 7 5 4 3 3 4 3 3 4 4 4 4 3 3 3 3 3 3 3 3 2 2 2
9 8 4 6 7 6 8 2 7 10 11 11 11 12 12 12 12 11 11 10 9 9 8 8 7 7 7 6 5 4 3 3 3 3 3 4 4 4 4 3 2 3 3 3 3 3 2 2 2
7 7 5 4 6 8 8 4 6 9 10 10 11 11 11 12 12 12 12 11 10 10 9 9 8 8 7 6 5 4 4 4 4 3 3 4 4 5 4 3 3 3 3 3 2 2 2 2 2
6 8 6 3 4 7 8 7 6 9 10 10 11 11 12 11 11 11 12 12 11 11 10 10 9 8 7 6 6 5 5 4 4 4 5 5 4 4 4 3 3 3 3 3 4 3 4 3 2
9 9 8 4 3 6 6 7 6 9 11 10 11 11 11 11 12 12 12 12 12 12 11 10 10 9 9 6 5 4 4 4 4 3 4 5 5 5 5 4 3 4 3 4 4 4 3 3 3
11 10 8 5 4 7 7 8 8 8 9 9 10 10 11 12 13 13 13 13 12 12 12 10 10 10 9 8 6 5 4 4 4 4 4 5 5 5 4 4 4 3 4 4 4 5 5 3 3
10 7 7 8 9 7 8 8 6 8 9 10 10 11 11 12 12 13 13 13 13 12 12 11 11 10 9 9 8 8 6 6 5 4 4 5 5 5 5 5 4 4 3 3 5 4 4 4 4
7 3 6 9 10 10 9 10 6 7 8 9 10 11 11 11 12 13 13 13 12 12 11 11 11 10 10 9 9 9 7 6 5 5 5 5 5 5 5 5 4 4 4 4 4 3 4 4 4
5 5 6 9 11 13 10 11 7 6 6 5 7 9 10 11 11 12 12 12 11 11 11 11 11 10 10 10 10 9 8 7 6 6 5 5 4 4 5 5 4 4 4 4 4 4 5 4 4
10 10 8 10 11 10 6 9 6 2 4 4 4 5 8 10 10 11 13 13 12 13 12 12 12 11 10 11 10 10 9 9 8 7 6 6 4 4 5 5 4 4 4 4 4 5 4 5 5
12 14 11 10 10 8 8 9 4 2 2 3 3 3 6 8 9 11 12 12 12 12 13 13 13 12 11 10 10 9 9 8 7 7 6 6 4 4 4 5 5 4 5 5 4 4 5 4 5
12 12 11 12 12 11 8 7 6 5 5 4 4 4 4 6 8 10 11 11 11 12 12 13 12 11 11 10 9 8 8 7 6 5 6 5 4 4 5 5 5 5 4 4 5 4 4 4 5
10 9 9 11 11 12 11 11 8 7 7 5 3 3 3 5 7 8 8 9 10 11 11 11 11 11 10 10 9 7 8 7 7 6 5 5 4 4 4 4 4 4 4 5 5 5 4 5 5
11 11 10 10 11 12 11 6 1 4 4 3 2 1 1 3 5 6 7 8 8 9 10 10 10 10 9 9 8 7 7 7 7 6 6 5 5 5 5 5 5 5 4 4 4 5 5 5 5
11 12 13 11 11 11 12 6 3 2 2 2 1 1 1 2 3 4 5 7 7 8 8 9 9 9 9 8 8 7 7 7 7 7 6 6 6 6 6 5 5 5 5 5 5 6 5 6 6
Wind_Direction
177 186 209 234 228 91 69 71 72 82 80 74 71 60 58 44 32 69 96 116 119 114 113 118 109 112 111 109 106 107 109 109 109 109 109 111 112 112 112 112 115 116 118 119 122 122 120 119 119
173 187 225 238 356 79 74 70 72 69 84 102 90 79 74 67 60 92 115 122 125 115 113 108 112 113 112 110 108 108 108 109 109 108 109 110 110 111 114 115 115 117 118 120 125 124 122 122 121
181 223 258 258 55 60 75 77 81 89 99 103 92 64 52 65 85 106 117 133 129 115 111 107 116 116 115 112 111 108 107 108 111 110 110 110 111 115 115 116 114 117 122 122 122 123 124 123 122
213 223 230 73 72 66 75 90 101 107 99 87 102 90 75 62 88 110 124 133 125 121 120 112 120 119 118 116 116 114 112 115 116 115 113 113 112 114 115 115 114 116 124 126 123 122 121 121 122
240 251 131 83 76 78 81 95 105 92 92 94 96 93 87 85 104 117 126 127 123 123 119 117 122 122 122 121 122 120 118 118 117 114 112 114 113 114 114 115 115 114 119 124 124 123 122 124 124
241 244 77 79 83 88 99 107 99 90 96 104 107 100 91 117 123 127 128 128 123 125 123 121 129 125 127 129 126 123 121 119 118 119 119 119 118 119 121 121 120 116 117 123 125 125 122 124 127
298 31 70 76 89 95 98 106 91 94 101 104 111 103 115 131 130 133 131 130 124 123 122 127 136 136 133 127 127 125 124 123 122 121 125 125 123 124 126 126 124 121 121 123 125 126 124 125 129
296 281 89 81 82 90 113 116 90 88 95 110 128 114 132 139 142 138 135 133 127 126 126 130 133 132 141 138 132 131 129 126 125 124 128 135 137 134 134 138 130 129 127 127 127 128 128 129 132
262 250 72 69 74 101 129 131 115 106 119 122 101 94 124 138 146 145 143 142 140 137 133 135 134 136 138 133 133 144 143 139 147 143 141 160 155 141 147 121 126 130 130 131 131 132 133 141 145
262 46 64 60 72 110 137 137 135 145 137 128 119 115 130 146 154 157 152 152 150 146 145 140 139 140 139 133 135 147 149 144 152 129 140 140 130 131 128 123 135 138 139 142 140 145 166 193 165
280 36 63 81 91 122 140 141 149 152 140 143 143 142 148 154 160 161 156 155 148 147 147 148 143 140 140 139 140 138 137 132 137 132 135 129 141 144 142 142 152 158 167 162 156 178 181 171 145
240 61 57 89 113 137 136 139 145 139 82 124 143 148 154 162 164 165 159 153 148 150 152 151 144 146 151 142 138 152 148 145 138 136 155 149 145 144 135 150 141 156 158 151 160 161 158 160 167
208 76 88 111 134 131 138 143 134 125 115 130 142 153 161 165 165 164 161 159 156 159 158 152 150 149 151 152 177 155 150 151 140 139 140 154 159 152 148 141 148 170 161 164 169 175 166 181 183
119 125 122 136 137 146 154 143 155 135 142 145 154 163 167 169 169 168 171 171 168 167 163 157 163 158 159 164 172 162 157 150 145 145 137 157 154 140 152 155 167 172 178 163 173 175 177 192 178
185 173 156 155 163 163 180 170 164 143 153 158 164 168 169 173 173 180 179 177 174 172 168 165 169 165 166 172 172 162 160 154 151 143 146 163 160 151 169 162 183 175 176 168 186 182 190 191 189
207 214 193 157 181 173 224 171 142 158 168 169 170 171 176 179 183 183 182 182 177 175 171 174 176 167 168 171 173 168 166 153 156 160 161 167 164 171 186 180 184 172 183 175 178 204 200 191 202
213 223 210 158 184 189 227 208 140 170 179 176 178 178 183 184 190 187 187 184 182 180 178 177 180 172 172 170 174 178 169 171 174 176 176 170 182 184 198 197 174 194 191 191 207 182 201 197 199
219 229 221 208 177 206 224 222 165 180 192 186 185 184 187 192 192 188 189 186 184 183 184 183 181 179 178 175 176 184 182 182 189 184 178 180 191 194 209 199 185 204 197 199 202 187 196 210 212
254 249 237 220 175 218 232 234 202 186 199 198 193 193 194 198 190 187 189 189 187 186 187 189 191 181 186 185 189 187 187 191 189 185 179 188 200 196 211 224 188 210 209 212 205 200 192 199 190
234 240 236 208 187 237 247 245 223 196 205 207 202 198 199 198 191 188 192 192 192 191 192 191 193 190 194 188 194 196 196 194 190 195 179 193 199 207 205 218 218 206 207 208 209 209 218 213 206
228 238 238 229 201 221 249 240 217 203 205 211 212 206 201 200 194 189 192 196 195 194 194 196 194 192 196 190 191 190 189 207 191 191 191 198 201 206 221 216 223 213 217 206 210 214 218 220 221
229 229 241 235 235 229 237 260 212 203 201 209 213 211 206 201 197 191 191 195 197 196 193 194 192 193 193 193 197 197 200 202 196 195 185 189 199 207 207 211 215 221 225 214 225 209 224 224 228
241 229 235 242 248 254 230 257 236 195 215 212 211 212 209 203 200 195 193 193 195 193 191 189 190 193 192 196 195 201 205 203 195 195 183 199 195 206 209 206 210 215 224 218 230 215 226 227 238
197 202 217 237 247 246 241 251 250 209 225 223 205 206 207 203 201 198 193 189 190 189 190 187 185 190 192 197 199 204 205 206 203 202 195 201 194 195 199 203 207 214 219 214 217 221 218 231 240
204 219 223 226 228 239 219 242 249 222 229 240 232 203 199 199 197 194 192 189 189 189 189 186 183 188 191 196 201 202 206 207 209 210 207 213 202 193 191 202 202 208 213 218 216 216 228 225 228
215 231 239 249 250 235 204 236 226 209 227 236 228 202 190 192 193 191 190 190 190 190 190 188 186 188 190 196 201 203 205 212 210 209 214 208 217 209 190 200 204 210 216 221 215 223 218 223 231
218 229 249 260 265 266 236 226 219 207 215 214 204 187 187 192 191 189 188 189 189 191 191 190 187 189 190 193 196 200 203 210 213 206 214 214 211 208 199 203 208 211 215 224 224 228 227 224 231
242 232 230 243 251 254 245 239 232 208 214 202 196 183 185 190 190 188 187 189 191 190 187 188 187 189 190 189 193 193 197 199 205 212 213 216 212 214 209 210 215 217 216 219 229 228 224 231 233
201 216 232 242 252 258 257 243 221 208 206 210 191 143 155 180 181 182 185 185 185 185 182 181 182 184 186 189 190 195 194 197 201 204 206 208 210 207 209 211 215 218 218 217 223 238 230 232 236
227 225 224 235 239 249 267 260 109 169 189 210 217 84 93 125 151 164 170 171 173 175 177 178 181 183 183 185 189 190 191 197 202 202 204 206 210 212 209 210 213 218 216 216 222 234 235 237 239